Charlottetown, Prince Edward Island

9:13 AM ADT on August 19, 2017 (GMT -0300)
Charlottetown

Weather History for CYYG - May, 2012

Change the Weather History Date:

Saturday, May 5, 2012

  Actual Average Record
Temperature  
Mean Temperature 45 °F -  
Max Temperature 60 °F 59 °F 75 °F (1999)
Min Temperature 30 °F 41 °F 30 °F (2002)
Degree Days  
Heating Degree Days 20    
Moisture  
Dew Point 38 °F    
Average Humidity 79    
Maximum Humidity 100    
Minimum Humidity 36    
Precipitation  
Precipitation 0.00 in 0.13 in - ()
Sea Level Pressure  
Sea Level Pressure 30.01 in    
Wind  
Wind Speed 3 mph ()    
Max Wind Speed 10 mph    
Max Gust Speed -    
Visibility 15.0 miles    
Events      
Averages and records for this station are not official NWS values.
T = Trace of Precipitation, MM = Missing Value Source: Averaged Metar Reports

Daily Weather History Graph

Daily Weather History Graph

Search for Another Location

Airport or City:

Trip Planner

Search our weather history database for the weather conditions in past years. The results will help you decide how hot, cold, wet, or windy it might be!

Date:

Astronomy

May. 05, 2012 Rise Set
Actual Time 5:52 AM ADT 8:27 PM ADT
Civil Twilight 5:18 AM ADT 9:01 PM ADT
Nautical Twilight 4:35 AM ADT 9:44 PM ADT
Astronomical Twilight 3:46 AM ADT 10:33 PM ADT
Moon 8:15 PM ADT (5/5) 5:12 AM ADT (5/5)
Length of Visible Light 15h 42m
Length of Day
14h 34m
Full, 100% of the Moon is Illuminated
May 5
Full
May 6
Full
May 12
Last Quarter
May 20
New
May 28
First Quarter

Hourly Weather History & Observations

Time (ADT) Temp. Windchill Dew Point Humidity Pressure Visibility Wind Dir Wind Speed Gust Speed Precip Events Conditions
12:00 AM 35.6 °F - 35.6 °F 100% 30.05 in 15.0 mi Calm Calm - N/A   Clear
2:00 AM 32.0 °F - 30.2 °F 93% 30.01 in 15.0 mi Calm Calm - N/A   Clear
3:00 AM 36 °F - 34 °F 88% 30.00 in 15 mi SW 3.5 mph - -   Clear
3:00 AM 35.6 °F 32.8 °F 33.8 °F 93% 30.00 in 15.0 mi SW 3.5 mph - N/A   Partly Cloudy
4:00 AM 32.0 °F - 32.0 °F 100% 29.99 in 15.0 mi Calm Calm - N/A   Scattered Clouds
5:00 AM 32.0 °F - 30.2 °F 93% 29.99 in 15.0 mi Calm Calm - N/A   Mostly Cloudy
6:00 AM 32.0 °F - 30.2 °F 93% 30.00 in 15.0 mi North 2.3 mph - N/A   Mostly Cloudy
7:00 AM 35.6 °F 31.7 °F 33.8 °F 93% 30.01 in 15.0 mi NNW 4.6 mph - N/A   Mostly Cloudy
8:00 AM 41.0 °F 39.0 °F 39.2 °F 93% 30.03 in 15.0 mi North 3.5 mph - N/A   Mostly Cloudy
9:00 AM 44 °F - 42 °F 91% 30.02 in 15 mi North 3.5 mph - -   Scattered Clouds
9:00 AM 42.8 °F 40.1 °F 42.8 °F 100% 30.02 in 15.0 mi North 4.6 mph - N/A   Mostly Cloudy
10:00 AM 48.2 °F - 42.8 °F 82% 30.02 in 15.0 mi NE 3.5 mph - N/A   Mostly Cloudy
11:00 AM 55.4 °F - 42.8 °F 63% 30.01 in 15.0 mi NNE 4.6 mph - N/A   Mostly Cloudy
12:00 PM 57.2 °F - 41.0 °F 55% 29.99 in 15.0 mi ESE 5.8 mph - N/A   Mostly Cloudy
1:00 PM 59.0 °F - 42.8 °F 55% 29.99 in 15.0 mi NE 6.9 mph - N/A   Mostly Cloudy
2:00 PM 59.0 °F - 41.0 °F 51% 29.99 in 15.0 mi NNE 6.9 mph - N/A   Mostly Cloudy
3:00 PM 60 °F - 40 °F 36% 29.98 in 15 mi NNE 2.3 mph - -   Scattered Clouds
3:00 PM 59.0 °F - 41.0 °F 51% 29.98 in 15.0 mi NNE 3.5 mph - N/A   Mostly Cloudy
4:00 PM 55.4 °F - 39.2 °F 54% 29.99 in 15.0 mi North 10.4 mph - N/A   Mostly Cloudy
5:00 PM 51.8 °F - 39.2 °F 62% 30.00 in 15.0 mi North 10.4 mph - N/A   Mostly Cloudy
6:00 PM 50.0 °F - 39.2 °F 66% 30.01 in 15.0 mi North 9.2 mph - N/A   Mostly Cloudy
7:00 PM 46.4 °F 42.4 °F 39.2 °F 76% 30.01 in 15.0 mi North 8.1 mph - N/A   Mostly Cloudy
8:00 PM 44.6 °F 40.2 °F 39.2 °F 81% 30.02 in 15.0 mi North 8.1 mph - N/A   Mostly Cloudy
9:00 PM 42 °F - 39 °F 84% 30.03 in 15 mi North 8.1 mph - -   Overcast
9:00 PM 42.8 °F 38.0 °F 39.2 °F 87% 30.03 in 15.0 mi North 8.1 mph - N/A   Overcast
10:00 PM 42.8 °F 40.1 °F 39.2 °F 87% 30.04 in 15.0 mi North 4.6 mph - N/A   Overcast
11:00 PM 41.0 °F 36.4 °F 39.2 °F 93% 30.04 in 15.0 mi NNW 6.9 mph - N/A   Mostly Cloudy